Regional Weather Roundup
Issued by NWS

Home | Current Version | Previous Version | Text Only | Print | Product List | Glossary Off
Versions: 1 2 3 4 5 6 7 8 9 10 11 12 13 14 15 16 17 18 19 20 21 22 23 24 25 26 27 28 29 30 31 32 33 34 35 36 37 38 39 40 41 42 43 44 45 46 47 48 49 50

000
ASUS43 KBIS 211410
RWRND

NORTH DAKOTA REGIONAL WEATHER ROUNDUP
NATIONAL WEATHER SERVICE BISMARCK ND
800 AM CST TUE FEB 21 2017

NOTE: "FAIR" INDICATES FEW OR NO CLOUDS BELOW 12,000 FEET WITH NO
SIGNIFICANT WEATHER AND/OR OBSTRUCTIONS TO VISIBILITY.


NDZ001>003-009>011-017-211500-
NORTHWEST NORTH DAKOTA

CITY           SKY/WX    TMP DP  RH WIND       PRES   REMARKS
WILLISTON      FAIR      29  26  89 S5        29.66F
MINOT          FAIR      31  27  85 CALM      29.64R
MINOT AFB      CLEAR     26  24  92 W3        29.64R
$$

NDZ018>021-031>035-040>046-211500-
SOUTHWEST NORTH DAKOTA

CITY           SKY/WX    TMP DP  RH WIND       PRES   REMARKS
BISMARCK       FAIR      31  27  85 CALM      29.69R
DICKINSON      FAIR      35  28  75 W9        29.67F
GARRISON         N/A     30  26  85 CALM      29.66R
HETTINGER ARPT CLEAR     37  29  72 CALM      29.72F
$$

NDZ004>008-012>016-024-026-027-054-211500-
NORTHEAST NORTH DAKOTA

CITY           SKY/WX    TMP DP  RH WIND       PRES   REMARKS
GRAND FORKS    PTCLDY    30  26  85 E6        29.71S FOG
GRND FRKS AFB  CLEAR     30  29  99 CALM      29.70F FOG
DEVILS LAKE    FAIR      29  27  92 E3        29.66F
$$

NDZ022-023-025-028>030-036>039-047>053-211500-
SOUTHEAST NORTH DAKOTA

CITY           SKY/WX    TMP DP  RH WIND       PRES   REMARKS
FARGO          PTCLDY    37  32  82 SE12      29.69F
JAMESTOWN      FAIR      34  32  92 SW8       29.65S
$$




USA.gov is the U.S. government's official web portal to all federal, state and local government web resources and services.